DW7213 Weather Reports


Display with metric or nautical units.
time (UTC)temp
F
wind
direction
speed
MPH
gust
MPH
rain 1hr
in
rain 24hr
in
rain mn
in
humidity
%
barometer
mb
20210305043150 52 223 3.0 5.0 0.00 0.00 0.00 65 1027.5
20210305043112 52 223 3.0 5.0 0.00 0.00 0.00 65 1027.4
20210305043029 52 223 3.0 9.0 0.00 0.00 0.00 65 1027.5
20210305042955 52 223 3.0 9.0 0.00 0.00 0.00 65 1027.5
20210305042930 52 223 3.0 10.0 0.00 0.00 0.00 65 1027.5
20210305042830 52 223 4.0 10.0 0.00 0.00 0.00 65 1027.4
20210305042557 52 223 4.0 10.0 0.00 0.00 0.00 65 1027.4
20210305042339 52 223 7.0 10.0 0.00 0.00 0.00 65 1027.3
20210305041908 52 223 8.0 10.0 0.00 0.00 0.00 65 1027.3
20210305041637 52 221 6.0 10.0 0.00 0.00 0.00 65 1027.3
20210305041530 52 220 6.0 10.0 0.00 0.00 0.00 65 1027.3
20210305041315 52 220 6.0 10.0 0.00 0.00 0.00 65 1027.4
20210305041102 52 220 6.0 9.0 0.00 0.00 0.00 65 1027.3
20210305040927 52 220 6.0 9.0 0.00 0.00 0.00 65 1027.3
20210305040808 52 220 5.0 9.0 0.00 0.00 0.00 65 1027.3
20210305040611 52 220 6.0 9.0 0.00 0.00 0.00 65 1027.3
20210305040447 52 220 6.0 9.0 0.00 0.00 0.00 65 1027.3
20210305040411 52 220 6.0 8.0 0.00 0.00 0.00 65 1027.3
20210305040258 52 220 4.0 6.0 0.00 0.00 0.00 65 1027.2
20210305040217 52 220 4.0 6.0 0.00 0.00 0.00 65 1027.3
20210305040154 52 221 4.0 6.0 0.00 0.00 0.00 65 1027.3
20210305040129 52 220 4.0 6.0 0.00 0.00 0.00 65 1027.3
20210305040031 52 220 3.0 6.0 0.00 0.00 0.00 65 1027.2
20210305035949 52 220 3.0 6.0 0.00 0.00 0.00 65 1027.3
20210305035923 52 220 3.0 6.0 0.00 0.00 0.00 65 1027.3
20210305035536 52 220 4.0 6.0 0.00 0.00 0.00 65 1027.3
20210305035128 52 220 4.0 6.0 0.00 0.00 0.00 65 1027.3
20210305034653 52 220 3.0 5.0 0.00 0.00 0.00 65 1027.3
20210305034415 52 220 2.0 5.0 0.00 0.00 0.00 65 1027.3
20210305034233 52 220 3.0 5.0 0.00 0.00 0.00 65 1027.3
20210305033953 52 220 3.0 5.0 0.00 0.00 0.00 65 1027.4
20210305033734 52 220 4.0 8.0 0.00 0.00 0.00 65 1027.4
20210305033620 52 221 3.0 8.0 0.00 0.00 0.00 65 1027.3
20210305033449 52 220 4.0 8.0 0.00 0.00 0.00 65 1027.3
20210305033334 52 220 4.0 8.0 0.00 0.00 0.00 65 1027.3
20210305033207 52 221 4.0 9.0 0.00 0.00 0.00 65 1027.3
20210305033048 52 220 5.0 9.0 0.00 0.00 0.00 65 1027.3
20210305032921 52 220 4.0 9.0 0.00 0.00 0.00 65 1027.3
20210305032755 52 220 4.0 9.0 0.00 0.00 0.00 65 1027.3
20210305032608 52 220 6.0 9.0 0.00 0.00 0.00 65 1027.3
20210305032426 52 220 7.0 9.0 0.00 0.00 0.00 65 1027.3
20210305032325 52 220 6.0 9.0 0.00 0.00 0.00 65 1027.3
20210305032118 52 220 6.0 9.0 0.00 0.00 0.00 65 1027.4
20210305031841 52 220 6.0 9.0 0.00 0.00 0.00 65 1027.4
20210305031642 52 221 6.0 9.0 0.00 0.00 0.00 65 1027.4
20210305031522 52 220 5.0 9.0 0.00 0.00 0.00 65 1027.4
20210305031335 52 220 6.0 9.0 0.00 0.00 0.00 65 1027.4
20210305031209 52 220 6.0 10.0 0.00 0.00 0.00 64 1027.4
20210305031041 52 220 6.0 10.0 0.00 0.00 0.00 64 1027.4
20210305030900 52 220 4.0 10.0 0.00 0.00 0.00 64 1027.5
20210305030720 52 221 5.0 10.0 0.00 0.00 0.00 64 1027.4
20210305030439 52 223 6.0 10.0 0.00 0.00 0.00 64 1027.4
20210305030215 52 223 8.0 10.0 0.00 0.00 0.00 64 1027.4
20210305030041 52 222 9.0 11.0 0.00 0.00 0.00 64 1027.4
20210305025958 52 221 5.0 11.0 0.00 0.00 0.00 64 1027.4
20210305025950 52 221 6.0 11.0 0.00 0.00 0.00 64 1027.4
20210305025926 52 221 7.0 11.0 0.00 0.00 0.00 64 1027.5
20210305025825 52 221 7.0 11.0 0.00 0.00 0.00 64 1027.4
20210305025635 52 221 7.0 11.0 0.00 0.00 0.00 64 1027.5
20210305025350 52 221 8.0 11.0 0.00 0.00 0.00 64 1027.5
20210305024945 52 220 8.0 11.0 0.00 0.00 0.00 64 1027.5
20210305024727 52 220 5.0 11.0 0.00 0.00 0.00 64 1027.5
20210305024555 52 220 5.0 11.0 0.00 0.00 0.00 63 1027.5
20210305024357 52 220 5.0 11.0 0.00 0.00 0.00 63 1027.5
20210305024231 52 220 5.0 11.0 0.00 0.00 0.00 63 1027.5
20210305024108 52 220 6.0 11.0 0.00 0.00 0.00 63 1027.4
20210305023914 52 220 8.0 11.0 0.00 0.00 0.00 63 1027.5
20210305023740 52 219 8.0 11.0 0.00 0.00 0.00 63 1027.4
20210305023544 52 220 7.0 12.0 0.00 0.00 0.00 63 1027.4
20210305023323 52 219 6.0 12.0 0.00 0.00 0.00 63 1027.4
20210305023139 52 220 6.0 12.0 0.00 0.00 0.00 63 1027.4
20210305022956 52 220 9.0 12.0 0.00 0.00 0.00 62 1027.4
20210305022936 52 220 9.0 12.0 0.00 0.00 0.00 62 1027.4
20210305022917 52 219 8.0 11.0 0.00 0.00 0.00 62 1027.4
20210305022843 52 220 7.0 12.0 0.00 0.00 0.00 62 1027.5
20210305022805 52 220 6.0 12.0 0.00 0.00 0.00 62 1027.5
20210305022439 52 220 7.0 12.0 0.00 0.00 0.00 62 1027.4
20210305022138 52 220 8.0 12.0 0.00 0.00 0.00 62 1027.4
20210305021906 52 221 8.0 12.0 0.00 0.00 0.00 62 1027.4
20210305021657 52 221 9.0 12.0 0.00 0.00 0.00 62 1027.4
20210305021539 52 218 9.0 12.0 0.00 0.00 0.00 62 1027.4
20210305021319 52 216 8.0 12.0 0.00 0.00 0.00 62 1027.4
20210305021202 53 217 8.0 12.0 0.00 0.00 0.00 61 1027.4
20210305021032 52 214 8.0 13.0 0.00 0.00 0.00 61 1027.4
20210305020856 53 213 8.0 13.0 0.00 0.00 0.00 61 1027.3
20210305020738 53 215 8.0 13.0 0.00 0.00 0.00 61 1027.4
20210305020601 53 217 9.0 13.0 0.00 0.00 0.00 61 1027.3
20210305020350 53 216 9.0 13.0 0.00 0.00 0.00 61 1027.4
20210305020208 53 216 10.0 13.0 0.00 0.00 0.00 61 1027.4
20210305020134 53 219 9.0 13.0 0.00 0.00 0.00 61 1027.3
20210305020053 53 221 9.0 13.0 0.00 0.00 0.00 61 1027.3
20210305020026 53 221 11.0 13.0 0.00 0.00 0.00 60 1027.3
20210305015910 53 217 10.0 13.0 0.00 0.00 0.00 60 1027.2
20210305015851 53 216 9.0 12.0 0.00 0.00 0.00 60 1027.3
20210305015612 53 215 8.0 12.0 0.00 0.00 0.00 60 1027.3
20210305015338 53 216 9.0 12.0 0.00 0.00 0.00 60 1027.2
20210305015130 53 217 10.0 12.0 0.00 0.00 0.00 60 1027.3
20210305014910 53 219 9.0 12.0 0.00 0.00 0.00 60 1027.3
20210305014636 53 219 10.0 12.0 0.00 0.00 0.00 60 1027.3
20210305014535 54 221 9.0 12.0 0.00 0.00 0.00 59 1027.3
20210305014256 54 222 8.0 12.0 0.00 0.00 0.00 59 1027.3
20210305014107 54 225 6.0 11.0 0.00 0.00 0.00 59 1027.3
20210305013950 54 224 7.0 11.0 0.00 0.00 0.00 59 1027.3
20210305013741 54 225 7.0 11.0 0.00 0.00 0.00 59 1027.3
20210305013610 54 225 7.0 11.0 0.00 0.00 0.00 59 1027.3
20210305013449 54 225 7.0 11.0 0.00 0.00 0.00 59 1027.3
20210305013326 54 225 8.0 11.0 0.00 0.00 0.00 59 1027.3
20210305013222 54 225 7.0 12.0 0.00 0.00 0.00 58 1027.3
20210305013025 54 227 6.0 12.0 0.00 0.00 0.00 59 1027.2
20210305012954 54 227 6.0 12.0 0.00 0.00 0.00 58 1027.2
20210305012928 54 227 8.0 12.0 0.00 0.00 0.00 58 1027.2
20210305012905 54 228 7.0 13.0 0.00 0.00 0.00 58 1027.2
20210305012832 54 228 10.0 14.0 0.00 0.00 0.00 58 1027.2
20210305012659 54 221 9.0 14.0 0.00 0.00 0.00 58 1027.2
20210305012428 54 215 9.0 14.0 0.00 0.00 0.00 58 1027.1
20210305012205 54 211 9.0 14.0 0.00 0.00 0.00 57 1027.2
20210305012023 55 211 9.0 14.0 0.00 0.00 0.00 57 1027.2
20210305011613 55 218 10.0 14.0 0.00 0.00 0.00 57 1027.2
20210305011438 55 216 10.0 13.0 0.00 0.00 0.00 57 1027.2
20210305011308 55 225 9.0 13.0 0.00 0.00 0.00 57 1027.2
20210305011130 55 223 9.0 13.0 0.00 0.00 0.00 57 1027.2
20210305011020 55 221 9.0 13.0 0.00 0.00 0.00 57 1027.1
20210305010816 55 223 8.0 15.0 0.00 0.00 0.00 57 1027.1
20210305010656 55 222 9.0 16.0 0.00 0.00 0.00 57 1027.1
20210305010500 55 225 10.0 16.0 0.00 0.00 0.00 57 1027.0
20210305010344 55 242 10.0 16.0 0.00 0.00 0.00 57 1027.0
20210305010144 55 231 10.0 16.0 0.00 0.00 0.00 57 1027.0
20210305010034 55 234 12.0 16.0 0.00 0.00 0.00 56 1027.1
20210305005940 55 240 11.0 16.0 0.00 0.00 0.00 56 1027.1
20210305005904 55 242 11.0 15.0 0.00 0.00 0.00 56 1027.2
20210305005830 55 246 9.0 15.0 0.00 0.00 0.00 56 1027.1
20210305005806 55 247 11.0 15.0 0.00 0.00 0.00 56 1027.2
20210305005648 55 242 11.0 14.0 0.00 0.00 0.00 56 1027.2
20210305005519 55 235 9.0 13.0 0.00 0.00 0.00 56 1027.2
20210305005217 55 236 7.0 13.0 0.00 0.00 0.00 57 1027.2
20210305004846 55 236 9.0 14.0 0.00 0.00 0.00 57 1027.1
20210305004609 55 232 8.0 15.0 0.00 0.00 0.00 57 1027.2
20210305004422 55 221 8.0 15.0 0.00 0.00 0.00 57 1027.1
20210305004301 55 218 9.0 15.0 0.00 0.00 0.00 57 1027.1
20210305004141 55 217 10.0 15.0 0.00 0.00 0.00 57 1027.1
20210305003911 55 220 11.0 15.0 0.00 0.00 0.00 57 1027.1
20210305003722 55 223 11.0 15.0 0.00 0.00 0.00 58 1027.1
20210305003547 55 221 11.0 16.0 0.00 0.00 0.00 57 1027.0
20210305003400 55 224 10.0 17.0 0.00 0.00 0.00 57 1027.1
20210305003245 55 222 11.0 17.0 0.00 0.00 0.00 57 1027.1
20210305003126 55 218 11.0 17.0 0.00 0.00 0.00 57 1027.1
20210305003048 55 228 11.0 17.0 0.00 0.00 0.00 57 1027.0
20210305002947 55 216 13.0 17.0 0.00 0.00 0.00 57 1027.0
20210305002828 55 225 10.0 15.0 0.00 0.00 0.00 56 1027.0
20210305002722 55 227 11.0 15.0 0.00 0.00 0.00 57 1027.0
20210305002652 55 225 9.0 17.0 0.00 0.00 0.00 57 1027.0
20210305002434 55 220 10.0 17.0 0.00 0.00 0.00 57 1026.9
20210305002140 55 232 11.0 17.0 0.00 0.00 0.00 56 1026.9
20210305001857 55 228 10.0 17.0 0.00 0.00 0.00 56 1027.0
20210305001710 55 229 8.0 17.0 0.00 0.00 0.00 56 1026.9
20210305001550 55 229 11.0 17.0 0.00 0.00 0.00 56 1027.0
20210305001422 55 219 11.0 14.0 0.00 0.00 0.00 56 1026.9
20210305001237 55 216 9.0 14.0 0.00 0.00 0.00 56 1026.9
20210305001119 55 218 9.0 14.0 0.00 0.00 0.00 56 1026.8
20210305000853 55 218 9.0 14.0 0.00 0.00 0.00 56 1026.8
20210305000742 55 227 8.0 14.0 0.00 0.00 0.00 56 1026.8
20210305000700 55 227 9.0 14.0 0.00 0.00 0.00 56 1026.8
20210305000540 55 229 9.0 14.0 0.00 0.00 0.00 56 1026.9
20210305000210 55 229 9.0 14.0 0.00 0.00 0.00 56 1026.9
20210305000115 56 217 8.0 13.0 0.00 0.00 0.00 56 1026.9
20210304235956 55 219 8.0 13.0 0.00 0.00 0.00 56 1026.9
20210304235926 56 217 7.0 13.0 0.00 0.00 0.00 56 1026.9
20210304235813 55 218 9.0 13.0 0.00 0.00 0.00 56 1026.9
20210304235401 55 214 8.0 13.0 0.00 0.00 0.00 57 1027.0
20210304235036 55 216 8.0 14.0 0.00 0.00 0.00 57 1027.0
20210304234623 55 217 9.0 14.0 0.00 0.00 0.00 56 1027.0
20210304234431 55 218 10.0 14.0 0.00 0.00 0.00 56 1027.0
20210304234314 55 219 10.0 15.0 0.00 0.00 0.00 57 1027.1
20210304234128 55 222 11.0 15.0 0.00 0.00 0.00 56 1027.0
20210304233947 55 221 10.0 15.0 0.00 0.00 0.00 57 1027.0
20210304233808 55 218 10.0 15.0 0.00 0.00 0.00 57 1027.0
20210304233630 55 215 8.0 15.0 0.00 0.00 0.00 57 1027.0
20210304233529 55 217 9.0 15.0 0.00 0.00 0.00 57 1027.0
20210304233356 55 217 10.0 15.0 0.00 0.00 0.00 56 1027.0
20210304233247 55 215 10.0 14.0 0.00 0.00 0.00 56 1027.0
20210304233226 55 213 10.0 14.0 0.00 0.00 0.00 56 1027.1
20210304233201 55 213 9.0 14.0 0.00 0.00 0.00 56 1027.1
20210304233148 55 211 10.0 15.0 0.00 0.00 0.00 56 1027.1
20210304233115 55 208 11.0 15.0 0.00 0.00 0.00 56 1027.1
20210304233033 55 217 11.0 15.0 0.00 0.00 0.00 56 1027.1
20210304232917 55 213 9.0 15.0 0.00 0.00 0.00 56 1027.2
20210304232801 55 217 12.0 16.0 0.00 0.00 0.00 56 1027.2
20210304232257 55 219 10.0 16.0 0.00 0.00 0.00 56 1027.1
20210304231830 55 219 12.0 16.0 0.00 0.00 0.00 56 1027.1
20210304231622 55 213 12.0 17.0 0.00 0.00 0.00 56 1027.1
20210304231452 55 215 11.0 17.0 0.00 0.00 0.00 56 1027.1
20210304231325 55 215 10.0 17.0 0.00 0.00 0.00 56 1027.1
20210304231141 55 217 11.0 17.0 0.00 0.00 0.00 55 1027.0
20210304230951 55 220 13.0 17.0 0.00 0.00 0.00 55 1027.0
20210304230733 55 219 12.0 17.0 0.00 0.00 0.00 56 1027.0
20210304230550 55 227 12.0 17.0 0.00 0.00 0.00 55 1027.0
20210304230343 56 222 11.0 17.0 0.00 0.00 0.00 55 1027.0
20210304230237 56 215 12.0 17.0 0.00 0.00 0.00 55 1027.0
20210304230147 56 219 12.0 17.0 0.00 0.00 0.00 55 1027.0
20210304230124 56 217 12.0 17.0 0.00 0.00 0.00 55 1027.0
20210304230108 56 219 11.0 15.0 0.00 0.00 0.00 55 1026.9
20210304230001 56 220 9.0 15.0 0.00 0.00 0.00 55 1027.0
20210304225921 56 217 10.0 15.0 0.00 0.00 0.00 55 1027.0
20210304225826 56 217 10.0 15.0 0.00 0.00 0.00 55 1027.0
20210304225418 56 218 10.0 15.0 0.00 0.00 0.00 55 1027.0
20210304225020 56 215 9.0 16.0 0.00 0.00 0.00 55 1027.0
20210304224759 56 214 9.0 16.0 0.00 0.00 0.00 55 1027.0
20210304224604 56 214 9.0 16.0 0.00 0.00 0.00 55 1027.0
20210304224434 56 215 10.0 16.0 0.00 0.00 0.00 55 1027.0
20210304224306 56 211 10.0 16.0 0.00 0.00 0.00 55 1027.0
20210304224140 56 211 10.0 16.0 0.00 0.00 0.00 55 1026.9
20210304224023 56 216 10.0 13.0 0.00 0.00 0.00 55 1027.0
20210304223819 56 217 8.0 13.0 0.00 0.00 0.00 55 1027.1
20210304223645 56 212 8.0 12.0 0.00 0.00 0.00 55 1027.0
20210304223526 56 213 9.0 13.0 0.00 0.00 0.00 54 1026.9
20210304223359 56 211 7.0 13.0 0.00 0.00 0.00 54 1026.9
20210304223259 56 211 7.0 13.0 0.00 0.00 0.00 54 1027.0
20210304223026 56 213 9.0 13.0 0.00 0.00 0.00 54 1026.9
20210304222942 56 213 9.0 13.0 0.00 0.00 0.00 54 1026.9
20210304222908 57 228 8.0 12.0 0.00 0.00 0.00 53 1026.9
20210304222827 56 229 8.0 12.0 0.00 0.00 0.00 54 1026.9
20210304222653 56 230 7.0 12.0 0.00 0.00 0.00 54 1027.0
20210304222309 56 232 7.0 12.0 0.00 0.00 0.00 55 1027.0
20210304221936 56 237 8.0 15.0 0.00 0.00 0.00 54 1027.0
20210304221745 56 237 7.0 15.0 0.00 0.00 0.00 54 1027.0
20210304221526 56 240 8.0 15.0 0.00 0.00 0.00 54 1027.0
20210304221355 56 243 9.0 15.0 0.00 0.00 0.00 54 1027.1
20210304221239 56 244 11.0 15.0 0.00 0.00 0.00 54 1027.0
20210304221107 56 246 11.0 15.0 0.00 0.00 0.00 53 1027.1
20210304220920 56 240 12.0 15.0 0.00 0.00 0.00 53 1027.1
20210304220741 56 226 9.0 14.0 0.00 0.00 0.00 54 1027.1
20210304220614 56 234 8.0 13.0 0.00 0.00 0.00 54 1027.2
20210304220417 56 239 9.0 13.0 0.00 0.00 0.00 54 1027.1
20210304220248 56 231 7.0 12.0 0.00 0.00 0.00 54 1027.1
20210304220205 56 228 9.0 12.0 0.00 0.00 0.00 54 1027.2
20210304220141 56 226 8.0 12.0 0.00 0.00 0.00 54 1027.1
20210304220113 56 225 9.0 12.0 0.00 0.00 0.00 54 1027.2
20210304220059 56 227 9.0 12.0 0.00 0.00 0.00 54 1027.1
20210304220040 56 229 8.0 12.0 0.00 0.00 0.00 54 1027.0
20210304220023 56 235 9.0 12.0 0.00 0.00 0.00 54 1027.0
20210304215736 56 233 7.0 12.0 0.00 0.00 0.00 54 1027.0
20210304215248 56 232 10.0 12.0 0.00 0.00 0.00 53 1027.0
20210304214818 57 220 9.0 11.0 0.00 0.00 0.00 53 1027.0
20210304214607 57 209 5.0 10.0 0.00 0.00 0.00 54 1027.0
20210304214339 56 209 6.0 10.0 0.00 0.00 0.00 53 1027.1
20210304214158 56 209 6.0 11.0 0.00 0.00 0.00 54 1027.0
20210304214048 56 209 5.0 11.0 0.00 0.00 0.00 54 1027.0
20210304213856 56 208 4.0 11.0 0.00 0.00 0.00 54 1027.0
20210304213707 56 208 6.0 11.0 0.00 0.00 0.00 54 1027.0
20210304213556 56 209 9.0 11.0 0.00 0.00 0.00 54 1027.0
20210304213335 56 217 7.0 10.0 0.00 0.00 0.00 54 1027.0
20210304213238 56 219 6.0 12.0 0.00 0.00 0.00 54 1027.0
20210304213051 56 218 6.0 12.0 0.00 0.00 0.00 54 1027.0
20210304212942 56 218 5.0 12.0 0.00 0.00 0.00 54 1027.0
20210304212912 56 218 6.0 12.0 0.00 0.00 0.00 54 1027.0
20210304212842 56 220 5.0 12.0 0.00 0.00 0.00 54 1027.0
20210304212810 56 220 7.0 12.0 0.00 0.00 0.00 54 1027.1
20210304212549 56 221 7.0 12.0 0.00 0.00 0.00 54 1027.1
20210304212347 56 221 8.0 12.0 0.00 0.00 0.00 54 1027.2
20210304212041 56 219 8.0 12.0 0.00 0.00 0.00 54 1027.1
20210304211759 56 218 8.0 12.0 0.00 0.00 0.00 54 1027.1
20210304211613 55 221 7.0 12.0 0.00 0.00 0.00 55 1027.1
20210304211432 55 221 9.0 14.0 0.00 0.00 0.00 54 1027.1
20210304211257 55 220 7.0 14.0 0.00 0.00 0.00 55 1027.1
20210304211044 55 221 9.0 14.0 0.00 0.00 0.00 55 1027.1
20210304210809 55 232 9.0 14.0 0.00 0.00 0.00 55 1027.3
20210304210608 55 234 9.0 14.0 0.00 0.00 0.00 56 1027.2
20210304210426 55 243 8.0 17.0 0.00 0.00 0.00 55 1027.2
20210304210229 55 239 10.0 17.0 0.00 0.00 0.00 55 1027.2
20210304210119 55 242 10.0 17.0 0.00 0.00 0.00 55 1027.3
20210304205939 55 244 11.0 17.0 0.00 0.00 0.00 55 1027.3
20210304205930 55 240 12.0 17.0 0.00 0.00 0.00 55 1027.4
20210304205855 55 244 12.0 15.0 0.00 0.00 0.00 55 1027.4
20210304205842 55 250 12.0 15.0 0.00 0.00 0.00 55 1027.4
20210304205757 55 241 11.0 15.0 0.00 0.00 0.00 55 1027.4
20210304205227 55 237 11.0 15.0 0.00 0.00 0.00 54 1027.5
20210304204839 55 239 9.0 15.0 0.00 0.00 0.00 56 1027.5
20210304204612 55 223 10.0 15.0 0.00 0.00 0.00 55 1027.5
20210304204419 55 236 10.0 16.0 0.00 0.00 0.00 55 1027.6
20210304204303 55 234 11.0 16.0 0.00 0.00 0.00 55 1027.5
20210304204127 55 221 11.0 16.0 0.00 0.00 0.00 55 1027.5
20210304204007 55 216 10.0 16.0 0.00 0.00 0.00 56 1027.6
20210304203837 55 219 10.0 16.0 0.00 0.00 0.00 56 1027.5
20210304203759 55 219 11.0 16.0 0.00 0.00 0.00 56 1027.6
20210304203641 55 223 11.0 16.0 0.00 0.00 0.00 56 1027.6
20210304203612 55 225 11.0 16.0 0.00 0.00 0.00 56 1027.6
20210304203427 55 221 12.0 16.0 0.00 0.00 0.00 56 1027.7
20210304203253 55 220 12.0 15.0 0.00 0.00 0.00 55 1027.6
20210304203230 55 227 10.0 15.0 0.00 0.00 0.00 56 1027.7
20210304203203 55 236 11.0 15.0 0.00 0.00 0.00 56 1027.7
20210304203122 55 216 10.0 15.0 0.00 0.00 0.00 56 1027.6
20210304202947 55 216 10.0 15.0 0.00 0.00 0.00 56 1027.8
20210304202913 55 215 10.0 14.0 0.00 0.00 0.00 56 1027.7
20210304202207 55 211 10.0 14.0 0.00 0.00 0.00 56 1027.6
20210304201648 55 216 9.0 13.0 0.00 0.00 0.00 57 1027.6
20210304201559 55 215 8.0 13.0 0.00 0.00 0.00 56 1027.6
20210304201410 55 213 10.0 13.0 0.00 0.00 0.00 56 1027.6
20210304201243 55 214 10.0 13.0 0.00 0.00 0.00 55 1027.7
20210304201112 55 219 8.0 13.0 0.00 0.00 0.00 55 1027.7
20210304200946 55 214 8.0 12.0 0.00 0.00 0.00 55 1027.7
20210304200838 55 215 8.0 12.0 0.00 0.00 0.00 55 1027.7
20210304200640 55 215 7.0 12.0 0.00 0.00 0.00 55 1027.7
20210304200423 55 216 8.0 12.0 0.00 0.00 0.00 55 1027.7
20210304200331 55 216 6.0 11.0 0.00 0.00 0.00 55 1027.8
20210304200205 55 217 5.0 11.0 0.00 0.00 0.00 55 1027.7
20210304200138 55 217 8.0 11.0 0.00 0.00 0.00 55 1027.8
20210304200110 55 218 7.0 11.0 0.00 0.00 0.00 55 1027.8
20210304200026 55 216 6.0 11.0 0.00 0.00 0.00 55 1027.7
20210304195852 55 216 9.0 12.0 0.00 0.00 0.00 55 1027.8
20210304195658 55 219 8.0 12.0 0.00 0.00 0.00 55 1027.7
20210304195128 55 224 7.0 12.0 0.00 0.00 0.00 55 1027.8
20210304194805 55 224 8.0 12.0 0.00 0.00 0.00 55 1027.8
20210304194619 55 224 8.0 12.0 0.00 0.00 0.00 55 1027.9
20210304194430 55 225 10.0 12.0 0.00 0.00 0.00 54 1027.9
20210304194252 55 225 9.0 12.0 0.00 0.00 0.00 55 1027.9
20210304194117 55 216 7.0 11.0 0.00 0.00 0.00 55 1027.9
20210304193940 55 216 8.0 11.0 0.00 0.00 0.00 54 1027.8
20210304193756 55 215 7.0 11.0 0.00 0.00 0.00 55 1027.7
20210304193626 55 215 6.0 11.0 0.00 0.00 0.00 55 1027.8
20210304193445 55 217 6.0 11.0 0.00 0.00 0.00 55 1027.8
20210304193340 55 218 6.0 10.0 0.00 0.00 0.00 54 1027.8
20210304193238 55 217 5.0 10.0 0.00 0.00 0.00 55 1027.9
20210304193129 54 217 5.0 12.0 0.00 0.00 0.00 55 1027.9
20210304193059 54 218 7.0 12.0 0.00 0.00 0.00 55 1027.9
20210304193022 54 218 5.0 12.0 0.00 0.00 0.00 56 1027.9
20210304192901 54 217 6.0 12.0 0.00 0.00 0.00 55 1027.9
20210304192723 54 217 9.0 12.0 0.00 0.00 0.00 55 1027.9
20210304192403 54 213 8.0 12.0 0.00 0.00 0.00 55 1027.9
20210304191913 54 213 8.0 12.0 0.00 0.00 0.00 55 1027.9
20210304191613 54 200 8.0 12.0 0.00 0.00 0.00 55 1027.9
20210304191436 54 196 7.0 12.0 0.00 0.00 0.00 55 1027.9
20210304191308 54 192 9.0 12.0 0.00 0.00 0.00 54 1028.0
20210304191119 54 176 7.0 11.0 0.00 0.00 0.00 54 1027.9
20210304191012 54 176 9.0 11.0 0.00 0.00 0.00 54 1027.9
20210304190751 55 176 6.0 11.0 0.00 0.00 0.00 55 1027.9
20210304190622 54 176 6.0 10.0 0.00 0.00 0.00 54 1027.8
20210304190422 55 176 7.0 10.0 0.00 0.00 0.00 54 1027.8
20210304190238 55 176 6.0 10.0 0.00 0.00 0.00 54 1027.8
20210304190119 55 176 5.0 10.0 0.00 0.00 0.00 55 1027.8
20210304190038 55 176 7.0 10.0 0.00 0.00 0.00 54 1027.7
20210304185937 55 176 5.0 10.0 0.00 0.00 0.00 55 1027.8
20210304185903 55 176 6.0 8.0 0.00 0.00 0.00 54 1027.8
20210304185845 55 176 5.0 8.0 0.00 0.00 0.00 56 1027.7
20210304185723 55 176 5.0 8.0 0.00 0.00 0.00 56 1027.6
20210304185335 54 176 4.0 8.0 0.00 0.00 0.00 56 1027.6
20210304185124 54 176 5.0 8.0 0.00 0.00 0.00 57 1027.6
20210304184635 54 176 4.0 8.0 0.00 0.00 0.00 57 1027.7
20210304184358 54 176 3.0 8.0 0.00 0.00 0.00 58 1027.7
20210304184159 54 176 3.0 8.0 0.00 0.00 0.00 58 1027.7
20210304184020 54 176 5.0 8.0 0.00 0.00 0.00 58 1027.7
20210304183758 53 176 4.0 8.0 0.00 0.00 0.00 58 1027.6
20210304183609 53 176 3.0 6.0 0.00 0.00 0.00 59 1027.7
20210304183434 53 176 3.0 6.0 0.00 0.00 0.00 59 1027.6
20210304183245 53 176 3.0 6.0 0.00 0.00 0.00 60 1027.6
20210304183108 52 176 3.0 6.0 0.00 0.00 0.00 60 1027.6
20210304182916 52 176 4.0 6.0 0.00 0.00 0.00 59 1027.6
20210304182835 52 176 4.0 6.0 0.00 0.00 0.00 59 1027.7
20210304182819 52 176 4.0 7.0 0.00 0.00 0.00 59 1027.6
20210304182747 52 176 3.0 5.0 0.00 0.00 0.00 59 1027.7
20210304182608 52 176 3.0 5.0 0.00 0.00 0.00 59 1027.7
20210304182153 52 176 3.0 5.0 0.00 0.00 0.00 58 1027.7
20210304181808 52 176 4.0 5.0 0.00 0.00 0.00 58 1027.8
20210304181539 52 176 3.0 5.0 0.00 0.00 0.00 59 1027.7
20210304181401 52 176 3.0 5.0 0.00 0.00 0.00 58 1027.8
20210304181227 52 176 4.0 5.0 0.00 0.00 0.00 58 1027.7
20210304181114 52 176 3.0 5.0 0.00 0.00 0.00 58 1027.7
20210304181026 52 176 3.0 5.0 0.00 0.00 0.00 58 1027.6
20210304180759 52 176 4.0 5.0 0.00 0.00 0.00 58 1027.6
20210304180609 53 176 3.0 4.0 0.00 0.00 0.00 57 1027.6
20210304180341 53 176 3.0 4.0 0.00 0.00 0.00 57 1027.7
20210304180325 53 176 3.0 4.0 0.00 0.00 0.00 56 1027.7
20210304180232 53 176 4.0 4.0 0.00 0.00 0.00 56 1027.8
20210304180104 54 176 3.0 6.0 0.00 0.00 0.00 56 1027.7
20210304175950 54 176 3.0 6.0 0.00 0.00 0.00 56 1027.7
20210304175852 54 176 2.0 6.0 0.00 0.00 0.00 56 1027.7
20210304175807 54 176 3.0 6.0 0.00 0.00 0.00 56 1027.8
20210304175240 54 176 3.0 4.0 0.00 0.00 0.00 58 1027.7
20210304174945 54 176 1.0 4.0 0.00 0.00 0.00 57 1027.8
20210304174706 53 176 0.0 5.0 0.00 0.00 0.00 58 1027.8
20210304174604 53 176 1.0 5.0 0.00 0.00 0.00 58 1027.7
20210304174351 53 176 2.0 5.0 0.00 0.00 0.00 58 1027.7
20210304174218 53 176 2.0 5.0 0.00 0.00 0.00 58 1027.7
20210304173937 53 176 3.0 5.0 0.00 0.00 0.00 59 1027.7
20210304173802 52 176 3.0 6.0 0.00 0.00 0.00 59 1027.6
20210304173633 52 176 4.0 6.0 0.00 0.00 0.00 58 1027.7
20210304173518 52 176 3.0 6.0 0.00 0.00 0.00 58 1027.6
20210304173255 53 176 4.0 6.0 0.00 0.00 0.00 58 1027.6
20210304173138 53 176 5.0 6.0 0.00 0.00 0.00 58 1027.6
20210304173007 53 176 4.0 6.0 0.00 0.00 0.00 59 1027.6
20210304172835 53 176 3.0 5.0 0.00 0.00 0.00 58 1027.6
20210304172822 53 176 3.0 6.0 0.00 0.00 0.00 58 1027.5
20210304172808 53 176 3.0 8.0 0.00 0.00 0.00 58 1027.5
20210304172706 53 176 3.0 8.0 0.00 0.00 0.00 58 1027.5
20210304172416 53 176 4.0 8.0 0.00 0.00 0.00 59 1027.5
20210304172057 52 176 5.0 8.0 0.00 0.00 0.00 58 1027.5
20210304171801 53 176 4.0 8.0 0.00 0.00 0.00 58 1027.4
20210304171554 53 176 4.0 5.0 0.00 0.00 0.00 58 1027.3
20210304171328 53 176 3.0 8.0 0.00 0.00 0.00 58 1027.3
20210304171116 53 176 2.0 8.0 0.00 0.00 0.00 58 1027.4
20210304170940 53 176 3.0 8.0 0.00 0.00 0.00 58 1027.3
20210304170819 53 176 4.0 8.0 0.00 0.00 0.00 58 1027.3
20210304170749 53 176 4.0 8.0 0.00 0.00 0.00 59 1027.2
20210304170606 52 176 2.0 5.0 0.00 0.00 0.00 60 1027.2
20210304170441 52 176 3.0 5.0 0.00 0.00 0.00 60 1027.1
20210304170346 52 176 3.0 6.0 0.00 0.00 0.00 60 1027.1
20210304170329 52 176 3.0 6.0 0.00 0.00 0.00 60 1027.1
20210304170305 52 176 4.0 8.0 0.00 0.00 0.00 60 1027.1
20210304170240 52 176 4.0 8.0 0.00 0.00 0.00 60 1027.1
20210304170112 52 176 4.0 8.0 0.00 0.00 0.00 60 1027.1
20210304170100 52 176 4.0 8.0 0.00 0.00 0.00 60 1027.1
20210304170021 51 176 4.0 9.0 0.00 0.00 0.00 60 1027.2
20210304165851 52 176 5.0 9.0 0.00 0.00 0.00 60 1027.2
20210304165243 51 176 3.0 9.0 0.00 0.00 0.00 61 1027.1
20210304164635 51 176 4.0 9.0 0.00 0.00 0.00 61 1027.1
20210304164523 51 176 6.0 9.0 0.00 0.00 0.00 61 1027.1
20210304164336 51 176 5.0 8.0 0.00 0.00 0.00 62 1027.0
20210304164209 51 176 6.0 9.0 0.00 0.00 0.00 62 1027.0
20210304164118 51 176 5.0 10.0 0.00 0.00 0.00 62 1027.0
20210304163917 51 176 5.0 11.0 0.00 0.00 0.00 61 1026.9
20210304163717 51 176 6.0 11.0 0.00 0.00 0.00 61 1027.0
20210304163547 51 176 7.0 11.0 0.00 0.00 0.00 61 1027.0
20210304163417 51 176 8.0 10.0 0.00 0.00 0.00 61 1026.8
20210304163357 51 176 8.0 10.0 0.00 0.00 0.00 61 1026.8
20210304163330 51 176 5.0 9.0 0.00 0.00 0.00 61 1026.8
20210304163258 51 176 4.0 10.0 0.00 0.00 0.00 62 1026.8
20210304163228 50 176 6.0 10.0 0.00 0.00 0.00 62 1026.8
20210304163207 50 176 5.0 10.0 0.00 0.00 0.00 62 1026.8
20210304162910 50 176 5.0 10.0 0.00 0.00 0.00 62 1026.8
20210304162417 50 176 7.0 10.0 0.00 0.00 0.00 61 1026.7
20210304161752 50 176 6.0 10.0 0.00 0.00 0.00 62 1026.7
20210304161404 50 176 7.0 11.0 0.00 0.00 0.00 62 1026.7
20210304161236 50 176 8.0 11.0 0.00 0.00 0.00 61 1026.7
20210304161122 50 176 8.0 11.0 0.00 0.00 0.00 62 1026.6
20210304161053 50 176 9.0 11.0 0.00 0.00 0.00 62 1026.7
20210304160858 50 176 10.0 11.0 0.00 0.00 0.00 62 1026.6
20210304160627 50 176 9.0 11.0 0.00 0.00 0.00 63 1026.6
20210304160449 50 176 7.0 10.0 0.00 0.00 0.00 62 1026.6
20210304160411 50 176 7.0 9.0 0.00 0.00 0.00 63 1026.6
20210304160351 50 176 8.0 10.0 0.00 0.00 0.00 63 1026.7
20210304160231 50 176 7.0 10.0 0.00 0.00 0.00 63 1026.6
20210304160201 50 176 7.0 10.0 0.00 0.00 0.00 63 1026.7
20210304160126 50 176 7.0 10.0 0.00 0.00 0.00 64 1026.7
20210304160053 50 176 8.0 12.0 0.00 0.00 0.00 64 1026.6
20210304160022 50 176 7.0 12.0 0.00 0.00 0.00 64 1026.6
20210304155915 50 176 7.0 12.0 0.00 0.00 0.00 64 1026.5
20210304155527 50 176 7.0 12.0 0.00 0.00 0.00 64 1026.6
20210304155341 50 176 8.0 12.0 0.00 0.00 0.00 63 1026.4
20210304155129 50 176 10.0 12.0 0.00 0.00 0.00 63 1026.4
20210304154555 50 197 6.0 12.0 0.00 0.00 0.00 63 1026.3
20210304154339 50 218 3.0 6.0 0.00 0.00 0.00 63 1026.3
20210304154148 50 219 3.0 6.0 0.00 0.00 0.00 63 1026.4
20210304154046 50 219 2.0 6.0 0.00 0.00 0.00 64 1026.4
20210304153839 50 219 3.0 9.0 0.00 0.00 0.00 64 1026.4
20210304153739 50 218 4.0 9.0 0.00 0.00 0.00 64 1026.4
20210304153547 50 219 4.0 9.0 0.00 0.00 0.00 64 1026.4
20210304153448 50 219 4.0 9.0 0.00 0.00 0.00 64 1026.3
20210304153409 50 219 6.0 9.0 0.00 0.00 0.00 64 1026.2
20210304153315 50 218 6.0 7.0 0.00 0.00 0.00 65 1026.2
20210304153232 50 219 5.0 7.0 0.00 0.00 0.00 65 1026.2
20210304153204 50 219 6.0 7.0 0.00 0.00 0.00 65 1026.1
20210304153124 49 218 5.0 7.0 0.00 0.00 0.00 65 1026.1
20210304152953 49 219 5.0 8.0 0.00 0.00 0.00 65 1026.0
20210304152942 49 219 5.0 7.0 0.00 0.00 0.00 65 1025.9
20210304152919 49 219 5.0 7.0 0.00 0.00 0.00 65 1026.0
20210304152539 49 219 5.0 9.0 0.00 0.00 0.00 64 1025.9
20210304152111 49 219 7.0 9.0 0.00 0.00 0.00 64 1025.9
20210304151504 49 219 6.0 9.0 0.00 0.00 0.00 64 1025.8
20210304151319 50 219 7.0 9.0 0.00 0.00 0.00 63 1025.7
20210304151140 50 219 6.0 9.0 0.00 0.00 0.00 63 1025.7
20210304151020 50 218 6.0 9.0 0.00 0.00 0.00 62 1025.7
20210304150840 50 219 6.0 9.0 0.00 0.00 0.00 61 1025.7
20210304150755 50 219 6.0 9.0 0.00 0.00 0.00 61 1025.6
20210304150440 50 219 6.0 9.0 0.00 0.00 0.00 61 1025.6
20210304150402 50 219 7.0 9.0 0.00 0.00 0.00 61 1025.6
20210304150322 50 218 6.0 9.0 0.00 0.00 0.00 61 1025.5
20210304150154 50 218 6.0 9.0 0.00 0.00 0.00 61 1025.5
20210304150130 50 219 7.0 9.0 0.00 0.00 0.00 62 1025.6
20210304150057 50 219 6.0 9.0 0.00 0.00 0.00 61 1025.4
20210304150033 50 219 7.0 9.0 0.00 0.00 0.00 61 1025.5
20210304145930 50 218 7.0 9.0 0.00 0.00 0.00 61 1025.5
20210304145853 50 218 6.0 9.0 0.00 0.00 0.00 62 1025.5
20210304145414 49 219 6.0 8.0 0.00 0.00 0.00 61 1025.6
20210304145107 49 218 5.0 8.0 0.00 0.00 0.00 61 1025.6
20210304144743 49 219 4.0 7.0 0.00 0.00 0.00 61 1025.6
20210304144450 49 219 3.0 7.0 0.00 0.00 0.00 61 1025.6
20210304144327 50 219 3.0 7.0 0.00 0.00 0.00 61 1025.7
20210304144158 50 218 3.0 7.0 0.00 0.00 0.00 61 1025.7
20210304144036 50 218 4.0 7.0 0.00 0.00 0.00 61 1025.8
20210304143842 50 219 4.0 7.0 0.00 0.00 0.00 61 1025.8
20210304143720 50 219 4.0 7.0 0.00 0.00 0.00 61 1025.7
20210304143541 50 219 5.0 9.0 0.00 0.00 0.00 61 1025.7
20210304143337 50 219 5.0 9.0 0.00 0.00 0.00 61 1025.7
20210304143153 50 218 6.0 9.0 0.00 0.00 0.00 61 1025.6
20210304143033 50 219 5.0 9.0 0.00 0.00 0.00 61 1025.7
20210304142823 50 218 6.0 9.0 0.00 0.00 0.00 61 1025.6
20210304142812 50 219 6.0 7.0 0.00 0.00 0.00 61 1025.6
20210304142742 50 218 5.0 7.0 0.00 0.00 0.00 61 1025.5
20210304142650 50 219 5.0 7.0 0.00 0.00 0.00 61 1025.5
20210304142412 50 218 5.0 10.0 0.00 0.00 0.00 61 1025.5
20210304142114 50 219 5.0 10.0 0.00 0.00 0.00 61 1025.5
20210304141836 50 218 6.0 10.0 0.00 0.00 0.00 61 1025.4
20210304141716 50 219 6.0 10.0 0.00 0.00 0.00 61 1025.4
20210304141530 50 219 7.0 10.0 0.00 0.00 0.00 61 1025.3
20210304141310 50 221 7.0 9.0 0.00 0.00 0.00 61 1025.2
20210304141132 50 221 7.0 9.0 0.00 0.00 0.00 61 1025.2
20210304140931 50 221 7.0 9.0 0.00 0.00 0.00 61 1025.2
20210304140817 50 221 7.0 9.0 0.00 0.00 0.00 61 1025.1
20210304140649 50 221 7.0 9.0 0.00 0.00 0.00 61 1025.1
20210304140534 50 222 7.0 9.0 0.00 0.00 0.00 61 1025.0
20210304140305 50 223 7.0 9.0 0.00 0.00 0.00 61 1025.1
20210304140212 50 223 6.0 9.0 0.00 0.00 0.00 61 1025.0
20210304140026 50 223 7.0 9.0 0.00 0.00 0.00 61 1025.0
20210304135823 50 225 6.0 9.0 0.00 0.00 0.00 61 1025.1
20210304135803 50 225 7.0 9.0 0.00 0.00 0.00 61 1025.0
20210304135730 50 225 6.0 9.0 0.00 0.00 0.00 61 1025.0
20210304135617 50 225 6.0 9.0 0.00 0.00 0.00 61 1025.0
20210304135435 50 225 6.0 9.0 0.00 0.00 0.00 61 1025.0
20210304134932 50 225 5.0 8.0 0.00 0.00 0.00 61 1024.9
20210304134812 50 225 4.0 8.0 0.00 0.00 0.00 61 1024.9
20210304134652 50 225 4.0 6.0 0.00 0.00 0.00 61 1024.9
20210304134526 50 225 4.0 9.0 0.00 0.00 0.00 61 1024.9
20210304134400 50 225 5.0 9.0 0.00 0.00 0.00 61 1025.0
20210304134240 50 225 5.0 9.0 0.00 0.00 0.00 61 1025.0
20210304134119 50 225 4.0 10.0 0.00 0.00 0.00 61 1024.9
20210304134000 50 225 3.0 10.0 0.00 0.00 0.00 61 1024.9
20210304133837 50 225 4.0 10.0 0.00 0.00 0.00 61 1024.9
20210304133722 50 225 4.0 10.0 0.00 0.00 0.00 61 1024.8
20210304133537 50 225 4.0 10.0 0.00 0.00 0.00 61 1024.8
20210304133415 50 225 5.0 10.0 0.00 0.00 0.00 61 1024.7
20210304133243 50 225 5.0 8.0 0.00 0.00 0.00 61 1024.7
20210304132954 50 225 5.0 9.0 0.00 0.00 0.00 61 1024.7
20210304132852 50 225 6.0 9.0 0.00 0.00 0.00 61 1024.7
20210304132812 50 226 5.0 9.0 0.00 0.00 0.00 61 1024.7
20210304132636 50 226 6.0 9.0 0.00 0.00 0.00 61 1024.7
20210304132206 50 226 5.0 9.0 0.00 0.00 0.00 61 1024.6
20210304131844 50 226 4.0 9.0 0.00 0.00 0.00 61 1024.5
20210304131658 50 226 5.0 10.0 0.00 0.00 0.00 61 1024.5
20210304131543 50 226 5.0 10.0 0.00 0.00 0.00 61 1024.4
20210304131355 50 227 4.0 10.0 0.00 0.00 0.00 61 1024.4
20210304131220 50 227 5.0 10.0 0.00 0.00 0.00 61 1024.5
20210304131136 50 227 6.0 10.0 0.00 0.00 0.00 61 1024.6
20210304130941 50 227 6.0 10.0 0.00 0.00 0.00 61 1024.6
20210304130838 50 227 6.0 10.0 0.00 0.00 0.00 61 1024.5
20210304130715 50 227 6.0 10.0 0.00 0.00 0.00 61 1024.6
20210304130557 50 228 6.0 10.0 0.00 0.00 0.00 60 1024.5
20210304130435 50 229 5.0 10.0 0.00 0.00 0.00 60 1024.5
20210304130330 50 231 4.0 9.0 0.00 0.00 0.00 60 1024.5
20210304130132 50 231 4.0 9.0 0.00 0.00 0.00 60 1024.5
20210304130029 50 231 4.0 11.0 0.00 0.00 0.00 60 1024.5
20210304125855 50 231 6.0 11.0 0.00 0.00 0.00 60 1024.5
20210304125740 50 231 5.0 11.0 0.00 0.00 0.00 59 1024.6
20210304125723 50 231 5.0 11.0 0.00 0.00 0.00 59 1024.6
20210304125704 50 231 6.0 11.0 0.00 0.00 0.00 60 1024.6
20210304125555 50 231 7.0 11.0 0.00 0.00 0.00 59 1024.7
20210304125404 50 233 5.0 11.0 0.00 0.00 0.00 59 1024.6
20210304125134 50 234 6.0 11.0 0.00 0.00 0.00 59 1024.5
20210304124822 50 234 5.0 11.0 0.00 0.00 0.00 59 1024.5
20210304124647 50 234 6.0 12.0 0.00 0.00 0.00 59 1024.5
20210304124543 50 234 5.0 12.0 0.00 0.00 0.00 60 1024.5
20210304124423 50 234 5.0 12.0 0.00 0.00 0.00 60 1024.5
20210304124259 50 234 7.0 12.0 0.00 0.00 0.00 60 1024.4
20210304124108 50 234 8.0 12.0 0.00 0.00 0.00 60 1024.5
20210304123916 50 234 9.0 12.0 0.00 0.00 0.00 59 1024.4
20210304123754 50 235 8.0 11.0 0.00 0.00 0.00 60 1024.3
20210304123629 50 237 7.0 9.0 0.00 0.00 0.00 60 1024.3
20210304123534 50 238 5.0 9.0 0.00 0.00 0.00 59 1024.2
20210304123338 50 238 5.0 9.0 0.00 0.00 0.00 60 1024.1
20210304123146 50 238 4.0 9.0 0.00 0.00 0.00 59 1023.9
20210304123115 50 238 4.0 9.0 0.00 0.00 0.00 59 1023.9
20210304122928 50 238 7.0 10.0 0.00 0.00 0.00 59 1023.9
20210304122709 50 238 7.0 10.0 0.00 0.00 0.00 59 1023.9
20210304122132 50 238 6.0 10.0 0.00 0.00 0.00 59 1023.9
20210304121810 50 238 6.0 10.0 0.00 0.00 0.00 59 1023.9
20210304121626 50 238 6.0 10.0 0.00 0.00 0.00 59 1023.9
20210304121513 50 239 6.0 10.0 0.00 0.00 0.00 59 1024.0
20210304121326 50 240 5.0 10.0 0.00 0.00 0.00 59 1024.0
20210304121202 50 240 5.0 10.0 0.00 0.00 0.00 59 1024.0
20210304121050 50 240 5.0 10.0 0.00 0.00 0.00 59 1024.0
20210304120925 50 240 5.0 11.0 0.00 0.00 0.00 59 1024.0
20210304120743 50 240 5.0 11.0 0.00 0.00 0.00 59 1024.0
20210304120618 50 240 6.0 11.0 0.00 0.00 0.00 59 1023.9
20210304120429 50 240 8.0 11.0 0.00 0.00 0.00 59 1023.9
20210304120319 50 240 8.0 11.0 0.00 0.00 0.00 59 1023.9
20210304120258 50 240 8.0 11.0 0.00 0.00 0.00 59 1023.8
20210304120210 50 240 8.0 11.0 0.00 0.00 0.00 59 1023.8
20210304120147 50 238 6.0 11.0 0.00 0.00 0.00 59 1023.8
20210304120104 50 236 7.0 11.0 0.00 0.00 0.00 59 1023.8
20210304120009 50 237 7.0 11.0 0.00 0.00 0.00 59 1023.7
20210304115921 50 237 8.0 11.0 0.00 0.00 0.00 59 1023.7
20210304115758 50 240 6.0 10.0 0.00 0.00 0.00 59 1023.7
20210304115457 50 240 7.0 10.0 0.00 0.00 0.00 59 1023.6
20210304114921 50 240 7.0 10.0 0.00 0.00 0.00 59 1023.7
20210304114747 50 241 6.0 10.0 0.00 0.00 0.00 59 1023.8
20210304114617 50 241 5.0 10.0 0.00 0.00 0.00 59 1023.7
20210304114454 50 241 4.0 10.0 0.00 0.00 0.00 59 1023.8
20210304114342 50 241 6.0 10.0 0.00 0.00 0.00 59 1023.8
20210304114156 50 241 7.0 15.0 0.00 0.00 0.00 59 1023.8
20210304114035 50 241 7.0 15.0 0.00 0.00 0.00 59 1023.8
20210304113841 50 242 5.0 15.0 0.00 0.00 0.00 59 1023.8
20210304113723 50 242 5.0 15.0 0.00 0.00 0.00 59 1023.8
20210304113617 50 242 8.0 15.0 0.00 0.00 0.00 59 1023.8
20210304113439 50 242 10.0 15.0 0.00 0.00 0.00 59 1023.8
20210304113322 50 241 10.0 15.0 0.00 0.00 0.00 59 1023.8
20210304113222 50 240 6.0 12.0 0.00 0.00 0.00 59 1023.8
20210304113113 50 240 6.0 12.0 0.00 0.00 0.00 59 1023.8
20210304113029 50 240 7.0 12.0 0.00 0.00 0.00 60 1023.8
20210304112957 50 240 7.0 12.0 0.00 0.00 0.00 60 1023.8
20210304112931 50 240 6.0 12.0 0.00 0.00 0.00 60 1023.8
20210304112832 50 240 7.0 13.0 0.00 0.00 0.00 59 1023.8
20210304112803 50 242 7.0 14.0 0.00 0.00 0.00 60 1023.8
20210304112532 50 243 7.0 14.0 0.00 0.00 0.00 60 1023.8
20210304112201 50 244 7.0 14.0 0.00 0.00 0.00 59 1023.8
20210304111859 50 244 8.0 14.0 0.00 0.00 0.00 59 1023.7
20210304111647 50 244 11.0 14.0 0.00 0.00 0.00 59 1023.8
20210304111529 50 242 9.0 14.0 0.00 0.00 0.00 59 1023.7
20210304111404 50 240 10.0 14.0 0.00 0.00 0.00 59 1023.7
20210304111243 50 242 11.0 14.0 0.00 0.00 0.00 59 1023.7
20210304111125 50 240 9.0 13.0 0.00 0.00 0.00 59 1023.7
20210304111024 50 241 8.0 15.0 0.00 0.00 0.00 59 1023.8
20210304110854 50 240 9.0 15.0 0.00 0.00 0.00 59 1023.7
20210304110742 50 240 10.0 15.0 0.00 0.00 0.00 59 1023.7
20210304110633 50 238 9.0 15.0 0.00 0.00 0.00 59 1023.7
20210304110520 50 236 10.0 15.0 0.00 0.00 0.00 59 1023.6
20210304110427 50 234 12.0 15.0 0.00 0.00 0.00 59 1023.6
20210304110406 50 230 10.0 15.0 0.00 0.00 0.00 59 1023.6
20210304110311 50 233 9.0 14.0 0.00 0.00 0.00 60 1023.6
20210304110243 50 232 10.0 14.0 0.00 0.00 0.00 60 1023.6
20210304110134 50 229 7.0 14.0 0.00 0.00 0.00 60 1023.6
20210304110112 50 223 7.0 13.0 0.00 0.00 0.00 60 1023.6
20210304110022 50 223 7.0 14.0 0.00 0.00 0.00 59 1023.6
20210304105907 50 223 8.0 14.0 0.00 0.00 0.00 59 1023.5
20210304105849 50 223 9.0 14.0 0.00 0.00 0.00 59 1023.6
20210304105530 50 223 10.0 14.0 0.00 0.00 0.00 59 1023.6
20210304104943 50 234 10.0 14.0 0.00 0.00 0.00 60 1023.5
20210304104543 50 223 9.0 13.0 0.00 0.00 0.00 60 1023.5
20210304104421 50 222 9.0 13.0 0.00 0.00 0.00 60 1023.6
20210304104240 50 227 9.0 13.0 0.00 0.00 0.00 60 1023.5
20210304104114 50 226 8.0 13.0 0.00 0.00 0.00 60 1023.5
20210304104007 50 227 8.0 13.0 0.00 0.00 0.00 60 1023.6
20210304103835 50 225 9.0 13.0 0.00 0.00 0.00 60 1023.5
20210304103645 50 229 6.0 11.0 0.00 0.00 0.00 60 1023.5
20210304103454 50 229 6.0 11.0 0.00 0.00 0.00 60 1023.6
20210304103332 50 229 7.0 11.0 0.00 0.00 0.00 60 1023.5
20210304103200 50 232 8.0 13.0 0.00 0.00 0.00 60 1023.5
20210304103043 50 229 7.0 13.0 0.00 0.00 0.00 60 1023.5
20210304102923 50 229 7.0 13.0 0.00 0.00 0.00 60 1023.4
20210304102834 50 229 9.0 13.0 0.00 0.00 0.00 60 1023.5
20210304102814 50 232 9.0 13.0 0.00 0.00 0.00 60 1023.4
20210304102728 50 229 10.0 13.0 0.00 0.00 0.00 60 1023.4
20210304102632 50 229 9.0 15.0 0.00 0.00 0.00 60 1023.5
20210304102447 50 233 10.0 15.0 0.00 0.00 0.00 60 1023.4
20210304102211 50 234 9.0 15.0 0.00 0.00 0.00 60 1023.3
20210304101821 50 234 9.0 15.0 0.00 0.00 0.00 60 1023.3
20210304101648 50 226 10.0 15.0 0.00 0.00 0.00 60 1023.3
20210304101528 50 222 12.0 15.0 0.00 0.00 0.00 60 1023.4
20210304101410 50 221 12.0 15.0 0.00 0.00 0.00 60 1023.3
20210304101252 50 232 10.0 14.0 0.00 0.00 0.00 60 1023.2
20210304101128 50 223 9.0 15.0 0.00 0.00 0.00 60 1023.2
20210304100741 50 221 11.0 16.0 0.00 0.00 0.00 60 1023.2
20210304100438 50 220 12.0 16.0 0.00 0.00 0.00 60 1023.1
20210304100248 50 223 12.0 16.0 0.00 0.00 0.00 60 1023.0
20210304100039 50 225 11.0 15.0 0.00 0.00 0.00 60 1023.0
20210304095806 50 214 9.0 15.0 0.00 0.00 0.00 60 1022.9
20210304095636 50 213 11.0 15.0 0.00 0.00 0.00 60 1022.8
20210304095434 50 217 11.0 15.0 0.00 0.00 0.00 60 1022.7
20210304095059 50 215 10.0 15.0 0.00 0.00 0.00 60 1022.7
20210304094856 50 216 10.0 14.0 0.00 0.00 0.00 61 1022.7
20210304094647 50 216 8.0 13.0 0.00 0.00 0.00 61 1022.7
20210304094533 50 219 8.0 13.0 0.00 0.00 0.00 61 1022.6
20210304094343 50 219 6.0 13.0 0.00 0.00 0.00 61 1022.6
20210304094241 50 219 7.0 13.0 0.00 0.00 0.00 61 1022.5
20210304094113 50 219 9.0 14.0 0.00 0.00 0.00 61 1022.5
20210304093957 50 219 9.0 14.0 0.00 0.00 0.00 61 1022.4
20210304093932 50 219 8.0 14.0 0.00 0.00 0.00 61 1022.5
20210304093710 50 217 9.0 14.0 0.00 0.00 0.00 61 1022.5
20210304093548 50 220 9.0 14.0 0.00 0.00 0.00 61 1022.4
20210304093414 50 220 10.0 14.0 0.00 0.00 0.00 61 1022.3
20210304093300 50 223 7.0 12.0 0.00 0.00 0.00 61 1022.3
20210304093138 50 223 7.0 11.0 0.00 0.00 0.00 61 1022.2
20210304093100 50 224 7.0 11.0 0.00 0.00 0.00 61 1022.3
20210304093040 50 225 7.0 11.0 0.00 0.00 0.00 61 1022.4
20210304092950 50 225 6.0 11.0 0.00 0.00 0.00 61 1022.4
20210304092910 50 227 5.0 11.0 0.00 0.00 0.00 61 1022.4
20210304092859 50 227 7.0 11.0 0.00 0.00 0.00 61 1022.4
20210304092641 50 227 7.0 11.0 0.00 0.00 0.00 61 1022.4
20210304092238 50 228 9.0 11.0 0.00 0.00 0.00 61 1022.3
20210304091945 50 229 8.0 11.0 0.00 0.00 0.00 61 1022.3
20210304091704 50 232 7.0 11.0 0.00 0.00 0.00 61 1022.2
20210304091538 50 234 6.0 11.0 0.00 0.00 0.00 61 1022.3
20210304091418 50 235 6.0 11.0 0.00 0.00 0.00 61 1022.2
20210304091232 50 236 8.0 11.0 0.00 0.00 0.00 61 1022.3
20210304091106 50 236 7.0 11.0 0.00 0.00 0.00 61 1022.3
20210304090904 50 240 6.0 12.0 0.00 0.00 0.00 61 1022.3
20210304090723 50 240 5.0 12.0 0.00 0.00 0.00 61 1022.3
20210304090616 50 240 5.0 12.0 0.00 0.00 0.00 61 1022.3
20210304090359 50 240 6.0 12.0 0.00 0.00 0.00 61 1022.3
20210304090220 50 240 8.0 12.0 0.00 0.00 0.00 61 1022.3
20210304090104 50 242 8.0 12.0 0.00 0.00 0.00 61 1022.3
20210304085926 50 247 7.0 13.0 0.00 0.00 0.00 61 1022.3
20210304085849 50 247 8.0 13.0 0.00 0.00 0.00 61 1022.2
20210304085820 50 248 9.0 13.0 0.00 0.00 0.00 61 1022.3
20210304085753 50 249 9.0 13.0 0.00 0.00 0.00 61 1022.3
20210304085706 49 250 9.0 13.0 0.00 0.00 0.00 61 1022.3
20210304085534 49 248 10.0 13.0 0.00 0.00 0.00 61 1022.2
20210304085225 49 245 7.0 12.0 0.00 0.00 0.00 61 1022.3
20210304085030 49 245 5.0 12.0 0.00 0.00 0.00 61 1022.2
20210304084739 49 245 7.0 12.0 0.00 0.00 0.00 61 1022.1
20210304084535 49 245 8.0 12.0 0.00 0.00 0.00 61 1022.1
20210304084404 49 245 9.0 12.0 0.00 0.00 0.00 61 1022.2
20210304084242 49 252 6.0 11.0 0.00 0.00 0.00 61 1022.1
20210304084124 49 256 6.0 10.0 0.00 0.00 0.00 61 1022.1
20210304084018 49 256 7.0 10.0 0.00 0.00 0.00 61 1022.1
20210304083849 49 257 6.0 12.0 0.00 0.00 0.00 61 1022.1
20210304083710 49 258 7.0 12.0 0.00 0.00 0.00 61 1022.1
20210304083549 49 258 7.0 12.0 0.00 0.00 0.00 61 1022.2
20210304083415 49 261 7.0 12.0 0.00 0.00 0.00 61 1022.1
20210304083240 49 261 7.0 12.0 0.00 0.00 0.00 61 1022.1
20210304083051 49 261 9.0 12.0 0.00 0.00 0.00 61 1022.0
20210304082934 49 262 8.0 12.0 0.00 0.00 0.00 61 1022.0
20210304082852 49 258 8.0 12.0 0.00 0.00 0.00 61 1022.0
20210304082827 49 247 7.0 12.0 0.00 0.00 0.00 61 1021.9
20210304082733 49 242 9.0 12.0 0.00 0.00 0.00 61 1021.9
20210304082447 49 241 10.0 12.0 0.00 0.00 0.00 61 1021.8
20210304082012 49 242 7.0 14.0 0.00 0.00 0.00 61 1021.7
20210304081734 49 238 8.0 14.0 0.00 0.00 0.00 61 1021.6
20210304081600 49 237 8.0 14.0 0.00 0.00 0.00 61 1021.7
20210304081437 49 238 10.0 14.0 0.00 0.00 0.00 61 1021.6
20210304081320 49 238 11.0 14.0 0.00 0.00 0.00 61 1021.6
20210304081159 49 238 9.0 14.0 0.00 0.00 0.00 61 1021.5
20210304081042 49 244 7.0 12.0 0.00 0.00 0.00 61 1021.5
20210304080915 49 244 8.0 12.0 0.00 0.00 0.00 61 1021.5
20210304080753 49 244 8.0 10.0 0.00 0.00 0.00 61 1021.5
20210304080621 49 247 7.0 11.0 0.00 0.00 0.00 61 1021.4
20210304080353 49 248 6.0 11.0 0.00 0.00 0.00 61 1021.4
20210304080230 50 249 4.0 11.0 0.00 0.00 0.00 61 1021.4
20210304080049 49 249 7.0 11.0 0.00 0.00 0.00 61 1021.3
20210304075907 49 249 8.0 11.0 0.00 0.00 0.00 61 1021.4
20210304075728 50 249 9.0 11.0 0.00 0.00 0.00 61 1021.4
20210304075716 50 249 8.0 12.0 0.00 0.00 0.00 61 1021.3
20210304075627 50 249 6.0 12.0 0.00 0.00 0.00 61 1021.4
20210304075453 50 249 7.0 12.0 0.00 0.00 0.00 61 1021.4
20210304075236 50 249 8.0 12.0 0.00 0.00 0.00 61 1021.3
20210304074944 50 250 9.0 12.0 0.00 0.00 0.00 61 1021.3
20210304074842 50 250 9.0 12.0 0.00 0.00 0.00 61 1021.4
20210304074638 50 254 9.0 12.0 0.00 0.00 0.00 61 1021.4
20210304074455 50 252 8.0 11.0 0.00 0.00 0.00 61 1021.3
20210304074313 50 252 8.0 11.0 0.00 0.00 0.00 61 1021.4
20210304074148 50 252 7.0 11.0 0.00 0.00 0.00 61 1021.5
20210304074035 50 254 8.0 11.0 0.00 0.00 0.00 61 1021.4
20210304073908 50 254 7.0 11.0 0.00 0.00 0.00 61 1021.4
20210304073750 50 253 7.0 12.0 0.00 0.00 0.00 61 1021.5
20210304073632 50 253 7.0 12.0 0.00 0.00 0.00 61 1021.5
20210304073528 50 254 7.0 13.0 0.00 0.00 0.00 61 1021.5
20210304073339 50 254 5.0 13.0 0.00 0.00 0.00 61 1021.5
20210304073149 50 254 7.0 13.0 0.00 0.00 0.00 61 1021.5
20210304073012 50 254 8.0 13.0 0.00 0.00 0.00 61 1021.5
20210304072834 50 260 10.0 13.0 0.00 0.00 0.00 61 1021.5
20210304072652 50 261 10.0 14.0 0.00 0.00 0.00 61 1021.5
20210304072529 50 257 10.0 14.0 0.00 0.00 0.00 61 1021.5
20210304072423 50 248 8.0 14.0 0.00 0.00 0.00 61 1021.5
20210304072326 50 239 9.0 14.0 0.00 0.00 0.00 61 1021.4
20210304072145 50 238 10.0 14.0 0.00 0.00 0.00 61 1021.4
20210304071933 50 237 11.0 14.0 0.00 0.00 0.00 61 1021.3
20210304071812 50 240 10.0 14.0 0.00 0.00 0.00 61 1021.4
20210304071616 50 248 10.0 14.0 0.00 0.00 0.00 61 1021.3
20210304071520 50 248 9.0 12.0 0.00 0.00 0.00 61 1021.2
20210304071335 50 245 9.0 12.0 0.00 0.00 0.00 61 1021.2
20210304071209 50 242 10.0 13.0 0.00 0.00 0.00 61 1021.1
20210304071028 50 241 9.0 13.0 0.00 0.00 0.00 61 1021.2
20210304070904 50 252 5.0 13.0 0.00 0.00 0.00 61 1021.2
20210304070746 50 253 7.0 13.0 0.00 0.00 0.00 61 1021.2
20210304070339 50 250 10.0 13.0 0.00 0.00 0.00 61 1021.1
20210304070159 50 241 10.0 13.0 0.00 0.00 0.00 61 1021.0
20210304070043 50 237 10.0 13.0 0.00 0.00 0.00 61 1021.0
20210304065854 50 248 9.0 14.0 0.00 0.00 0.00 61 1021.0
20210304065824 50 241 9.0 14.0 0.00 0.00 0.00 60 1020.9
20210304065752 50 236 8.0 14.0 0.00 0.00 0.00 60 1020.8
20210304065724 50 237 8.0 15.0 0.00 0.00 0.00 60 1020.8
20210304065425 50 244 10.0 16.0 0.00 0.00 0.00 60 1020.7
20210304065157 50 240 11.0 16.0 0.00 0.00 0.00 60 1020.6
20210304064932 50 240 10.0 16.0 0.00 0.00 0.00 60 1020.6
20210304064639 50 226 11.0 16.0 0.00 0.00 0.00 60 1020.6
20210304064437 50 221 12.0 16.0 0.00 0.00 0.00 61 1020.6
20210304064251 50 219 11.0 14.0 0.00 0.00 0.00 60 1020.5
20210304064053 50 216 9.0 13.0 0.00 0.00 0.00 60 1020.5
20210304063917 50 219 10.0 14.0 0.00 0.00 0.00 60 1020.5
20210304063757 50 216 6.0 14.0 0.00 0.00 0.00 60 1020.5
20210304063616 50 216 9.0 14.0 0.00 0.00 0.00 60 1020.5
20210304063423 50 217 9.0 14.0 0.00 0.00 0.00 60 1020.5
20210304063251 50 213 11.0 14.0 0.00 0.00 0.00 60 1020.5
20210304063205 50 238 10.0 14.0 0.00 0.00 0.00 60 1020.5
20210304063130 50 248 8.0 13.0 0.00 0.00 0.00 61 1020.5
20210304063108 50 247 8.0 13.0 0.00 0.00 0.00 61 1020.5
20210304063045 50 246 9.0 13.0 0.00 0.00 0.00 60 1020.5
20210304063028 50 242 8.0 13.0 0.00 0.00 0.00 60 1020.4
20210304062909 50 244 8.0 13.0 0.00 0.00 0.00 60 1020.4
20210304062854 50 244 9.0 13.0 0.00 0.00 0.00 60 1020.4
20210304062522 50 246 10.0 15.0 0.00 0.00 0.00 61 1020.4
20210304062229 50 244 9.0 15.0 0.00 0.00 0.00 61 1020.3
20210304061932 50 227 8.0 15.0 0.00 0.00 0.00 61 1020.2
20210304061610 50 238 8.0 15.0 0.00 0.00 0.00 61 1020.3
20210304061335 50 242 8.0 15.0 0.00 0.00 0.00 61 1020.3
20210304061213 50 243 11.0 15.0 0.00 0.00 0.00 61 1020.3
20210304060947 50 225 10.0 13.0 0.00 0.00 0.00 61 1020.2
20210304060826 50 223 10.0 13.0 0.00 0.00 0.00 62 1020.2
20210304060700 50 238 9.0 13.0 0.00 0.00 0.00 62 1020.2
20210304060541 50 238 9.0 13.0 0.00 0.00 0.00 61 1020.2
20210304060345 50 228 9.0 14.0 0.00 0.00 0.00 62 1020.1
20210304060221 50 223 9.0 15.0 0.00 0.00 0.00 62 1020.1
20210304060107 50 223 6.0 15.0 0.00 0.00 0.00 62 1020.1
20210304055944 50 217 9.0 15.0 0.00 0.00 0.00 62 1020.1
20210304055824 50 217 10.0 15.0 0.00 0.00 0.00 62 1020.0
20210304055809 50 215 10.0 15.0 0.00 0.00 0.00 62 1019.9
20210304055729 50 212 7.0 15.0 0.00 0.00 0.00 62 1019.9
20210304055628 50 206 6.0 16.0 0.00 0.00 0.00 62 1019.8
20210304055341 50 206 6.0 17.0 0.00 0.00 0.00 62 1019.7
20210304055047 50 204 10.0 17.0 0.00 0.00 0.00 62 1019.7
20210304054813 50 213 12.0 17.0 0.00 0.00 0.00 61 1019.7
20210304054619 50 223 12.0 17.0 0.00 0.00 0.00 61 1019.6
20210304054430 50 221 13.0 17.0 0.00 0.00 0.00 61 1019.5
20210304054311 50 225 13.0 16.0 0.00 0.00 0.00 61 1019.5
20210304054111 50 222 12.0 16.0 0.00 0.00 0.00 61 1019.3
20210304053939 50 221 10.0 19.0 0.00 0.00 0.00 61 1019.3
20210304053726 50 216 11.0 19.0 0.00 0.00 0.00 61 1019.3
20210304053600 50 227 11.0 19.0 0.00 0.00 0.00 61 1019.2
20210304053436 50 224 10.0 19.0 0.00 0.00 0.00 61 1019.2
20210304053133 50 218 14.0 19.0 0.00 0.00 0.00 61 1019.2
20210304052952 50 226 10.0 16.0 0.00 0.00 0.00 62 1019.2
20210304052829 50 189 8.0 13.0 0.00 0.00 0.00 62 1019.2
20210304052752 50 199 9.0 13.0 0.00 0.00 0.00 62 1019.1
20210304052702 50 196 8.0 13.0 0.00 0.00 0.00 63 1019.1
20210304052428 50 198 7.0 13.0 0.00 0.00 0.00 62 1019.1
20210304052235 50 191 8.0 12.0 0.00 0.00 0.00 62 1019.1
20210304051859 50 196 6.0 12.0 0.00 0.00 0.00 62 1019.0
20210304051649 50 201 5.0 12.0 0.00 0.00 0.00 63 1019.0
20210304051528 50 202 6.0 12.0 0.00 0.00 0.00 63 1019.0
20210304051251 50 195 7.0 12.0 0.00 0.00 0.00 63 1019.0
20210304051136 50 209 6.0 14.0 0.00 0.00 0.00 62 1019.0
20210304051029 50 210 7.0 16.0 0.00 0.00 0.00 62 1019.0
20210304050856 50 206 8.0 16.0 0.00 0.00 0.00 62 1019.0
20210304050650 50 211 7.0 16.0 0.00 0.00 0.00 62 1019.0
20210304050535 50 195 7.0 16.0 0.00 0.00 0.00 62 1019.0
20210304050325 50 204 11.0 16.0 0.00 0.00 0.00 62 1019.0
20210304050207 50 218 11.0 16.0 0.00 0.00 0.00 62 1019.0
20210304050031 50 216 9.0 15.0 0.00 0.00 0.00 62 1018.9
20210304045841 50 211 10.0 15.0 0.00 0.00 0.00 62 1018.9
20210304045735 50 198 9.0 14.0 0.00 0.00 0.00 63 1018.8
20210304045725 50 193 8.0 14.0 0.00 0.00 0.00 63 1018.8
20210304045627 50 194 8.0 14.0 0.00 0.00 0.00 63 1018.7
20210304045438 50 188 8.0 14.0 0.00 0.00 0.00 63 1018.7
20210304045320 50 181 8.0 14.0 0.00 0.00 0.00 63 1018.7
20210304045116 50 205 7.0 14.0 0.00 0.00 0.00 63 1018.6
20210304044857 50 206 6.0 13.0 0.00 0.00 0.00 63 1018.6
20210304044717 50 196 5.0 13.0 0.00 0.00 0.00 62 1018.6
20210304044522 50 203 5.0 14.0 0.00 0.00 0.00 62 1018.5
20210304044332 50 196 7.0 17.0 0.00 0.00 0.00 62 1018.5
20210304044116 50 207 7.0 17.0 0.00 0.00 0.00 62 1018.5
20210304043951 50 216 9.0 18.0 0.00 0.00 0.00 62 1018.4
20210304043744 50 219 8.0 19.0 0.00 0.00 0.00 62 1018.4
20210304043635 50 208 11.0 19.0 0.00 0.00 0.00 62 1018.5
20210304043442 50 216 11.0 20.0 0.00 0.00 0.00 62 1018.4